User: anonymous   Login
Location: Bletchingley
(51.2333°N, 0.1000°W)
Time: 03:18:20
(UTC+00:00)
Language:

SPOT 5 - Orbit

View from above orbital plane
View from above orbital plane
View from above satellite
View from above satellite

Ground track
Ground track

The orbit data is extracted from the following two-line orbital elements,

1 27421U 02021A   20335.48058244  .00000089  00000-0  30513-4 0  9992
2 27421  98.2557  43.7276 0136149  55.3015 306.0920 14.52065004968848
Epoch (UTC): 30 November 2020 11:32:02
Eccentricity: 0.0136149
inclination: 98.2557°
perigee height: 622 km
apogee height: 815 km
right ascension of ascending node: 43.7276°
argument of perigee: 55.3015°
revolutions per day: 14.52065004
mean anomaly at epoch: 306.0920°
orbit number at epoch: 96884

The dashed part of the orbit path shows where the satellite is in the earth's shadow,  

DLR